Theta_e
309 309 310 309 309 309 309 308 309 309 309 308 308 308 307 306 306 305 305 305 305 305 305 305 305 305 304 303 303 302 302 302 302 301 301 300 300 299 299 297 297 297 296 296 296 297 298 299 300 300 300 301 302 302 303 302 303 304 304 305 305 305 306 306 305 305 305 304 304
309 309 309 309 309 309 309 308 308 308 308 308 308 308 307 307 306 306 306 305 305 305 305 305 305 305 304 303 303 303 303 302 302 302 302 301 301 300 299 298 297 297 296 296 296 296 297 298 298 298 298 299 300 300 300 301 302 303 304 304 304 304 304 304 305 304 304 303 303
308 309 309 309 309 309 309 308 308 308 308 308 308 308 308 307 307 306 306 306 306 305 305 304 305 304 303 303 303 303 303 303 302 302 302 302 301 300 300 299 298 297 297 296 295 295 296 297 297 297 297 297 298 299 299 299 299 301 302 303 303 302 302 302 303 303 303 303 303
308 308 308 308 308 308 308 309 308 308 308 308 308 308 308 308 307 307 307 307 306 306 305 305 304 304 303 303 302 302 302 302 302 302 302 302 301 300 300 299 298 298 297 296 296 296 296 296 297 297 296 297 297 298 298 297 298 299 301 302 301 301 301 302 302 302 302 301 302
307 307 307 307 308 308 309 309 309 309 308 308 308 307 307 308 308 307 307 307 306 306 306 306 305 304 304 303 302 302 302 302 302 302 302 302 301 300 299 299 298 298 297 296 296 296 296 296 296 296 296 296 297 297 297 297 298 299 300 300 300 300 301 301 301 301 300 300 300
306 307 307 307 307 307 308 308 308 308 308 308 308 307 307 307 307 307 306 307 306 306 306 306 305 305 304 304 303 303 302 302 302 302 301 301 301 300 299 298 298 298 297 297 296 296 296 296 296 295 296 296 296 296 297 297 297 298 299 299 299 299 300 301 300 300 300 300 299
306 306 306 306 306 306 307 307 307 307 308 308 307 307 307 307 307 306 307 307 307 307 306 306 305 305 304 304 303 303 303 302 303 302 302 301 301 300 299 298 297 297 297 296 296 296 296 296 295 295 295 295 295 295 296 296 297 297 298 298 298 298 299 300 300 300 300 299 299
306 306 306 306 306 306 306 306 306 306 306 307 306 306 307 307 307 307 306 307 307 306 306 306 305 305 304 303 303 303 303 303 303 303 303 302 301 300 299 298 298 297 296 296 295 295 295 296 295 295 295 295 294 294 294 295 296 296 297 298 297 297 298 299 300 300 299 299 300
305 305 305 306 306 306 305 305 305 305 305 305 306 306 306 307 307 307 306 306 306 306 306 306 305 305 305 304 303 303 302 302 302 302 303 302 301 301 300 299 298 297 296 296 295 295 295 294 294 295 295 295 294 293 294 294 295 296 296 297 297 297 296 297 299 299 299 300 300
304 304 305 305 305 305 304 305 305 305 305 305 305 305 305 306 306 306 306 306 306 306 306 306 306 305 304 304 303 303 303 302 302 302 302 302 301 301 300 300 298 297 296 296 295 295 294 294 294 295 295 295 294 294 294 294 294 295 295 296 296 296 296 296 297 298 299 299 300
303 303 304 304 304 304 304 303 304 304 304 304 305 305 305 305 305 305 306 306 306 306 306 306 306 305 305 304 304 303 303 302 302 302 302 301 301 300 300 300 299 298 297 296 295 295 294 294 295 295 295 295 295 294 294 293 293 294 295 295 295 295 295 295 296 296 297 298 299
302 302 303 303 303 303 302 302 303 303 303 304 304 305 305 305 305 305 305 305 305 305 306 306 306 305 305 305 304 304 304 303 303 303 302 302 301 301 300 300 299 298 297 297 296 295 294 294 295 295 295 295 294 294 294 293 293 294 294 294 295 294 294 294 295 295 296 297 298
301 301 302 302 302 302 301 301 302 302 302 302 303 303 304 304 304 305 305 304 304 304 304 305 305 305 305 305 305 305 305 304 303 303 303 303 302 301 301 300 300 299 298 297 296 295 294 294 295 295 295 295 295 295 294 293 293 294 294 294 294 294 294 294 294 295 295 296 297
300 300 301 301 301 301 301 301 301 301 301 301 302 302 303 303 304 304 304 303 303 303 304 305 305 305 305 305 305 304 304 304 304 303 303 303 303 302 302 301 301 300 299 298 297 296 295 295 295 295 295 295 295 295 294 294 294 294 294 294 294 294 294 294 295 295 295 295 296
300 300 300 300 300 300 300 300 300 300 301 301 302 302 302 302 303 303 303 303 303 303 303 304 304 304 304 304 304 304 304 304 303 303 303 303 303 302 302 302 301 300 300 299 298 297 296 296 296 296 295 295 295 295 294 294 294 294 294 294 294 294 294 295 295 295 295 295 296
300 299 299 299 299 299 299 300 300 300 300 300 301 301 301 302 302 302 302 302 302 302 302 302 303 303 304 304 304 304 304 304 304 303 303 302 303 302 302 302 302 301 301 300 299 298 297 297 297 296 296 296 295 295 295 294 294 295 295 295 295 295 295 295 295 295 295 295 296
299 299 299 299 299 299 299 299 299 300 300 300 301 301 301 301 301 301 301 301 301 301 301 302 302 302 303 303 303 303 304 304 303 303 303 303 302 302 302 302 302 302 301 301 300 299 298 298 297 297 297 297 297 296 295 295 295 295 295 296 296 296 295 296 296 295 295 295 296
299 299 299 299 299 299 299 299 299 300 300 300 300 301 301 301 301 301 301 300 300 301 300 301 301 301 302 302 302 302 303 303 302 303 303 303 303 303 302 302 302 302 301 301 301 300 299 299 299 298 298 298 298 297 297 296 296 296 296 296 296 296 296 296 296 295 295 295 296
298 298 299 299 299 299 299 299 299 299 300 300 300 301 301 301 301 300 300 300 300 300 300 300 301 301 301 301 301 301 302 302 302 302 303 303 303 303 303 302 302 302 301 301 300 300 300 300 299 299 299 299 299 298 298 297 297 296 296 297 297 297 297 297 296 296 295 295 296
296 297 297 298 298 298 298 299 299 299 300 300 300 300 301 301 300 300 300 300 300 300 300 299 299 299 300 300 300 300 301 301 301 302 302 302 303 303 303 303 302 302 301 300 300 300 300 300 299 299 299 299 299 299 299 298 298 297 297 297 297 297 297 297 297 296 296 296 296
295 296 296 297 297 298 298 299 299 299 299 300 300 300 300 301 300 300 300 299 299 299 299 298 298 298 299 299 299 300 300 300 301 301 301 302 302 302 303 302 302 302 301 301 300 300 300 300 299 299 299 299 299 299 299 299 298 298 297 297 297 297 297 297 297 296 296 296 296
294 295 296 296 297 297 298 298 299 300 300 300 300 300 300 300 300 300 300 300 299 299 298 298 298 297 297 297 298 298 299 299 300 300 300 301 301 302 302 302 302 302 302 301 301 300 299 299 299 299 299 299 299 299 299 298 298 298 297 297 297 297 297 297 296 296 296 296 296
294 295 295 296 296 297 297 298 298 299 299 300 300 300 299 299 300 300 299 300 299 299 298 298 298 298 298 298 298 298 298 298 298 299 299 300 300 301 301 302 302 302 301 301 301 301 300 299 299 299 299 299 299 299 299 298 298 298 297 297 297 296 296 296 296 296 295 295 295
294 294 295 295 296 296 296 297 297 298 298 299 299 299 299 299 300 300 300 299 299 299 299 299 298 298 298 298 298 297 297 297 297 297 298 298 299 299 300 301 301 301 301 301 301 300 300 299 299 299 298 298 298 298 298 298 298 298 297 297 296 296 296 295 295 295 295 294 294
294 294 294 295 295 295 296 296 297 297 298 298 298 299 299 299 299 299 299 300 300 300 300 299 299 299 299 298 298 297 297 297 296 296 296 297 297 298 298 299 299 300 300 300 300 300 300 299 299 299 298 298 298 297 297 297 297 297 297 296 296 296 295 295 294 294 294 294 294
293 294 294 294 295 295 295 296 296 296 297 297 297 298 298 298 298 299 299 299 299 300 300 300 300 300 299 299 298 298 297 297 297 297 296 296 296 297 296 297 297 298 298 299 299 299 300 300 299 299 298 298 297 297 297 297 297 297 296 296 296 295 295 294 294 293 293 293 293
293 293 294 294 294 294 295 295 295 296 296 297 297 297 297 297 297 298 298 299 299 299 299 300 300 300 299 299 299 298 298 297 297 297 297 296 296 296 296 296 296 296 297 298 298 299 299 300 299 299 299 298 298 297 297 297 297 297 296 296 296 295 295 294 294 293 293 292 292
292 293 293 293 294 294 294 294 295 295 295 296 296 296 296 297 297 297 297 298 298 298 299 299 299 300 299 299 299 299 299 298 298 297 297 297 296 296 296 296 296 296 296 297 298 298 299 299 299 299 299 298 298 298 297 297 297 296 296 296 296 295 295 295 295 294 293 292 292
292 292 293 293 293 293 293 294 294 294 294 295 295 295 295 296 296 296 297 298 298 298 298 298 299 299 298 298 299 299 299 299 299 298 297 297 296 296 296 296 296 296 297 297 298 298 298 299 299 299 299 299 298 298 297 297 297 296 296 295 296 296 296 295 295 295 294 293 292
292 292 292 292 292 292 293 293 294 294 294 294 294 294 295 295 295 296 296 297 297 297 298 298 298 298 298 298 298 298 298 299 299 299 298 297 297 296 296 296 296 297 297 297 298 298 298 298 298 299 299 299 298 298 298 297 297 296 296 296 296 295 295 295 296 295 295 294 293
292 292 292 292 292 292 292 293 293 293 293 293 293 294 294 294 294 295 296 296 296 297 297 298 298 298 298 298 298 297 298 298 298 298 298 297 297 297 297 297 297 297 297 297 298 298 298 298 298 298 298 299 298 298 298 298 297 297 296 296 296 295 295 295 295 295 295 295 294
291 291 291 291 291 292 292 292 293 293 293 293 293 293 293 293 294 294 295 295 296 296 297 297 297 297 297 297 297 297 297 297 297 297 297 297 297 297 297 297 297 297 297 298 298 298 298 298 298 298 298 298 298 298 298 298 298 297 297 296 296 296 295 295 295 295 295 294 294
291 291 291 291 291 291 291 292 292 293 293 293 293 293 293 293 294 294 295 295 296 296 296 296 297 297 297 297 297 297 297 297 297 297 297 297 297 297 297 297 297 297 298 298 298 298 298 298 298 298 298 298 298 298 298 298 298 297 297 296 296 296 295 295 295 294 294 294 294
290 290 290 290 290 291 291 291 292 292 292 292 292 293 293 293 293 294 294 295 295 295 296 296 296 297 297 297 297 297 298 298 298 298 298 298 297 297 297 297 297 297 298 297 298 298 298 298 298 298 298 298 298 298 298 298 298 297 297 296 296 296 296 295 295 294 294 294 293
289 289 289 289 290 290 290 291 291 291 291 291 291 292 292 293 293 294 294 294 295 295 295 296 296 297 297 297 298 298 298 298 298 298 299 298 298 297 297 297 297 297 297 297 298 297 298 298 298 298 298 298 297 297 298 297 297 297 297 296 296 296 295 295 295 294 294 293 293
289 289 289 289 289 289 290 290 290 290 290 290 290 291 291 292 292 293 294 294 294 294 295 295 296 296 297 297 297 298 298 298 298 298 299 299 298 298 298 297 298 298 298 297 297 297 297 297 297 297 297 297 297 297 297 297 297 297 297 297 296 295 295 295 295 295 294 294 293
288 288 288 288 289 289 289 289 289 289 289 289 290 290 291 291 292 292 293 293 293 294 294 295 295 295 296 296 297 297 298 298 298 298 299 299 299 298 298 298 298 298 298 297 297 297 297 297 297 297 297 297 296 297 297 297 297 297 297 297 296 296 295 295 295 295 294 294 294
288 288 288 288 288 288 288 288 288 288 289 289 289 290 290 291 291 292 292 293 293 293 293 294 294 294 295 296 296 297 297 298 298 298 298 299 299 299 298 298 298 298 298 298 298 297 297 297 297 297 297 296 296 296 296 296 297 297 296 296 296 296 296 295 295 295 294 294 294
288 288 288 288 288 288 288 288 288 288 288 289 289 289 290 290 291 291 292 292 293 293 293 293 293 294 295 295 295 296 296 297 297 298 298 298 298 298 298 298 298 298 299 298 298 297 297 297 297 297 297 297 296 296 296 296 296 297 296 296 296 296 295 295 295 294 294 294 294
288 288 288 288 288 288 288 288 288 288 289 289 289 289 289 290 290 291 291 292 292 292 293 293 293 293 294 294 294 295 295 296 297 297 298 298 298 298 297 298 298 298 298 298 298 297 297 297 297 297 297 297 296 296 296 296 296 296 296 296 296 295 295 294 294 294 294 294 293
287 288 288 287 288 288 288 288 288 288 289 289 289 289 289 290 290 290 291 291 291 292 292 292 292 293 293 293 293 294 294 295 295 296 297 297 298 297 297 297 298 298 298 298 298 297 297 297 297 297 297 297 297 296 296 296 296 295 295 296 295 295 294 294 294 293 293 293 293
Wind_Speed
4 3 3 3 2 2 2 1 1 1 1 1 1 1 1 1 1 1 1 1 1 1 1 1 1 1 2 3 4 4 4 5 5 5 5 5 5 5 5 5 5 4 4 3 3 4 4 4 4 3 3 3 3 3 3 3 4 5 6 6 5 6 6 7 7 7 7 7 6
4 4 4 3 3 2 2 2 2 2 1 1 1 1 2 2 2 2 2 2 2 1 1 1 1 2 2 4 4 5 5 5 5 6 6 6 6 6 6 5 6 5 5 4 4 3 3 4 4 3 3 2 3 3 3 3 4 4 5 6 5 4 4 5 6 6 6 6 5
4 4 4 4 4 3 3 2 2 2 2 2 2 2 2 2 2 2 2 2 2 2 2 1 1 2 3 4 4 5 5 5 5 6 5 5 6 6 6 6 6 6 6 5 4 3 3 4 3 3 3 3 3 4 3 3 3 4 5 5 4 3 3 3 4 4 4 4 4
4 4 4 4 5 5 4 3 3 3 3 2 2 2 2 2 2 2 2 2 2 2 2 2 2 2 3 4 4 5 5 5 6 6 6 5 6 6 6 6 6 6 6 5 5 4 4 3 3 2 3 4 4 4 4 3 4 4 3 3 2 2 3 3 2 2 2 2 3
4 4 4 4 5 5 5 4 4 4 3 2 2 2 2 2 2 2 2 2 2 3 3 3 3 3 3 4 5 5 6 6 6 6 5 5 5 5 5 5 5 5 5 5 5 5 5 4 3 2 3 3 3 3 3 4 4 4 3 2 2 2 2 2 2 2 1 2 2
4 4 4 4 5 5 5 4 5 5 4 3 3 3 3 2 2 3 3 3 3 3 3 3 3 3 3 4 5 5 5 5 5 5 5 5 5 5 5 5 5 5 4 4 5 5 5 5 3 2 2 2 3 3 3 4 4 3 3 2 2 2 2 2 2 2 2 2 2
4 4 5 5 5 5 5 5 5 4 4 4 4 5 5 4 4 4 4 4 3 3 3 3 3 4 4 4 4 5 5 4 5 5 5 5 5 5 6 6 6 5 5 4 4 4 4 4 3 3 3 2 2 2 3 3 3 3 3 3 3 2 2 3 2 2 2 3 4
4 4 5 5 5 5 5 5 5 5 4 4 4 5 5 5 5 5 5 4 4 3 3 3 4 4 4 4 4 5 5 5 5 5 5 5 5 5 6 6 6 6 6 5 5 5 4 3 3 3 3 2 2 2 3 4 4 4 4 4 3 2 2 3 2 3 3 5 5
4 4 4 5 5 5 5 5 6 5 5 5 6 6 6 5 5 5 5 4 4 4 4 4 5 5 5 5 5 5 5 5 5 5 5 5 5 5 6 6 6 6 6 6 6 6 5 4 3 3 3 3 3 3 3 4 5 5 5 4 3 3 3 3 3 4 4 5 6
5 5 5 4 4 5 5 5 6 6 6 6 7 7 6 6 5 5 4 4 4 4 4 5 5 5 6 6 6 5 5 5 5 5 6 6 6 6 6 5 6 6 6 6 6 6 6 4 4 4 4 4 4 4 4 4 5 6 5 4 4 4 5 5 5 5 5 6 7
6 6 5 5 5 5 5 5 5 5 6 6 6 6 6 6 6 5 5 4 5 5 5 5 5 5 6 6 6 6 6 5 5 5 6 6 6 6 6 6 6 6 6 6 5 5 5 5 5 6 6 5 5 5 5 5 6 6 6 5 5 6 6 7 6 6 6 6 7
7 6 6 5 5 5 5 5 5 5 5 6 6 6 6 6 6 6 6 6 6 6 6 6 6 6 6 6 6 6 6 6 6 6 6 6 6 6 6 6 6 6 6 6 5 5 5 5 6 7 7 7 5 5 5 6 7 7 7 7 6 7 7 8 7 6 6 6 7
8 7 6 6 6 5 5 5 4 4 5 5 5 5 5 5 5 5 6 6 6 6 6 6 6 6 6 6 6 6 6 6 6 7 7 7 7 7 7 7 7 7 6 6 5 5 5 6 7 8 8 8 7 6 6 7 7 8 8 8 7 8 8 8 8 7 7 7 7
8 8 7 6 6 5 5 4 4 4 4 4 5 4 4 4 4 5 5 5 6 6 6 6 5 5 5 6 6 6 6 6 7 7 7 8 8 8 8 7 8 7 7 6 6 6 6 7 8 8 8 9 8 8 8 8 8 8 8 8 8 8 8 8 8 7 7 8 8
9 8 8 7 6 5 5 4 4 4 4 4 4 4 4 4 4 4 4 5 5 5 5 5 5 5 6 6 6 7 7 7 7 7 8 8 8 8 8 8 8 8 7 7 7 7 8 8 8 8 8 9 9 9 9 9 9 9 9 9 9 8 8 8 8 8 8 9 9
10 9 8 7 7 6 5 5 4 4 4 4 4 4 3 3 3 4 4 5 5 5 5 5 5 5 5 6 7 7 7 7 7 7 8 8 8 9 9 9 9 9 9 8 8 8 8 9 9 9 9 9 9 9 9 9 10 10 10 10 10 9 9 8 8 8 9 9 10
11 10 9 8 8 7 6 6 5 4 4 4 4 4 4 3 3 3 4 4 4 4 5 5 5 5 5 5 6 6 7 7 7 8 8 8 9 9 9 9 9 9 9 9 9 9 9 9 9 9 9 10 10 9 10 10 10 10 11 11 10 10 10 9 9 9 9 10 11
12 11 10 10 9 9 8 7 6 6 6 5 5 4 4 4 4 4 4 4 5 5 6 6 5 5 5 6 6 6 6 6 7 8 8 8 9 9 9 10 10 10 10 10 10 10 10 10 10 10 10 10 10 10 10 10 10 10 11 11 11 11 11 11 10 10 10 11 11
13 13 12 12 11 10 9 8 8 7 7 6 5 5 4 4 4 4 4 5 5 5 6 6 6 6 6 6 6 6 6 7 8 8 9 9 9 9 10 10 10 10 10 10 11 11 11 11 11 10 10 10 10 10 10 10 10 10 11 11 11 11 11 11 11 11 11 11 11
14 14 14 13 12 11 10 10 9 8 7 7 6 6 5 5 5 5 5 5 5 5 6 6 6 6 6 6 7 7 7 7 8 8 9 9 9 10 10 10 10 10 10 10 11 11 11 11 11 11 11 11 11 11 11 11 10 11 11 11 11 11 11 11 11 11 11 11 12
14 14 14 14 13 12 12 11 10 9 8 7 7 7 6 5 5 5 5 5 5 5 5 6 6 6 6 7 7 7 7 7 7 8 9 9 9 10 10 10 10 10 10 10 11 11 12 12 12 11 11 11 11 11 11 11 11 11 11 10 10 11 11 11 11 12 12 12 12
15 14 14 14 13 13 12 12 11 10 9 8 7 7 6 6 5 5 5 5 5 5 5 6 6 6 6 7 7 7 7 7 7 8 8 8 9 9 10 10 10 10 10 11 11 11 12 12 12 12 12 11 12 12 11 11 11 11 11 11 11 11 11 11 11 11 12 12 12
14 14 14 13 13 13 13 13 12 11 10 9 8 8 7 6 6 6 5 5 4 5 5 5 5 6 6 7 7 7 7 7 7 8 8 8 9 9 9 9 10 10 11 10 11 11 11 11 12 12 12 11 12 12 12 12 11 11 11 12 12 11 11 11 11 11 11 11 12
13 13 13 12 13 14 13 13 12 12 11 10 10 9 8 8 7 6 6 5 5 5 5 5 5 5 6 6 7 7 7 8 8 8 8 9 9 9 9 9 10 10 10 10 10 10 10 9 10 10 11 11 11 11 11 12 12 11 11 12 12 11 11 11 11 11 11 11 11
13 13 12 12 13 14 13 13 13 13 12 12 11 10 9 9 8 7 7 6 6 6 5 5 5 5 5 6 6 7 7 8 8 8 9 9 9 9 9 9 9 9 9 9 12 13 13 11 10 9 9 9 10 10 11 12 12 12 12 12 12 11 11 12 12 12 12 12 11
12 12 13 13 13 13 13 13 13 13 13 13 12 11 10 10 9 9 8 8 7 7 6 6 6 5 5 5 6 7 7 7 8 8 8 8 9 9 9 8 8 8 8 10 12 14 15 15 14 12 10 9 9 10 10 11 12 12 13 12 12 12 12 12 12 13 12 12 12
13 13 13 13 13 13 13 13 13 13 13 13 13 12 11 10 10 9 9 9 8 8 7 6 6 6 6 6 6 7 7 7 7 8 8 8 9 9 9 9 8 8 8 10 13 15 16 17 17 16 14 10 9 9 9 10 11 12 12 13 12 13 13 13 13 13 13 12 12
14 14 14 14 14 13 13 12 13 13 13 14 13 13 12 11 11 10 10 9 9 8 7 6 6 5 5 5 6 7 7 7 7 7 8 8 9 10 10 9 9 9 10 13 14 15 16 17 18 18 17 14 11 10 10 10 10 10 11 11 12 13 13 13 12 12 12 12 12
14 14 14 14 14 14 13 13 13 13 13 13 13 13 12 12 11 11 10 10 9 8 7 6 5 4 5 6 6 7 8 8 7 7 7 8 9 10 10 10 10 11 12 15 16 16 17 17 18 19 19 18 12 10 9 9 9 9 9 10 11 12 12 13 12 11 12 12 12
13 13 13 14 14 14 14 14 14 14 14 13 13 13 13 12 11 11 10 10 10 9 8 7 6 6 7 7 7 7 8 8 8 8 8 9 10 10 10 11 10 11 12 15 16 17 18 18 18 19 19 19 16 12 9 9 9 9 9 9 10 12 12 12 13 12 12 11 12
12 12 12 13 14 14 14 15 15 15 15 14 14 14 13 12 12 11 11 10 10 9 9 9 9 9 9 9 8 8 9 9 8 8 9 9 10 10 11 11 11 11 12 15 16 17 18 18 18 19 19 20 17 13 11 10 10 10 10 10 11 12 12 12 13 13 13 12 12
11 12 12 12 13 13 14 14 15 15 16 16 16 15 14 14 12 12 11 10 10 10 10 10 10 10 10 10 10 10 10 9 9 9 10 10 11 11 11 11 11 12 13 15 16 17 18 18 18 19 19 19 17 14 13 12 11 11 11 12 12 13 13 12 12 13 14 14 13
11 12 12 13 13 13 14 14 15 15 16 16 16 16 16 15 14 12 11 10 10 10 10 10 10 10 11 10 10 10 10 10 10 11 11 11 11 12 12 11 11 11 13 15 16 17 18 18 18 18 19 19 16 15 14 13 11 11 11 12 13 13 14 14 13 13 13 14 13
12 12 13 13 13 14 14 14 14 15 16 16 16 16 16 16 15 14 13 11 10 10 10 10 10 10 11 11 11 11 10 10 10 11 11 12 12 12 12 11 9 10 12 15 16 17 18 18 18 18 18 18 15 14 13 14 12 12 12 13 13 13 14 14 14 14 13 13 12
12 12 13 13 13 14 14 14 14 15 15 16 16 17 16 16 16 15 14 13 12 12 11 11 11 10 11 11 11 11 11 11 11 11 12 12 12 13 13 13 11 12 13 15 16 17 18 18 18 18 18 16 13 12 13 14 13 13 14 14 14 14 14 14 14 13 13 13 13
12 12 12 13 13 13 13 14 14 14 15 15 16 16 16 16 16 15 15 15 14 13 13 12 11 11 11 11 11 11 11 12 12 12 12 12 13 13 14 14 14 14 15 16 17 17 18 18 18 18 17 14 11 11 11 12 12 13 14 15 15 15 15 14 13 13 13 13 13
12 12 12 13 13 13 13 13 13 14 14 15 15 15 16 16 15 15 14 14 14 14 14 13 13 12 12 12 12 12 12 12 13 13 13 12 13 14 14 15 14 14 15 16 17 17 18 18 18 17 16 13 11 10 10 10 10 11 13 14 15 15 15 13 13 13 14 14 14
13 13 13 13 13 13 13 13 13 13 14 14 14 14 15 15 14 14 13 13 13 14 14 14 14 13 13 13 13 14 14 14 14 14 14 14 14 14 14 15 15 14 13 14 16 17 18 18 18 17 16 12 11 10 10 9 9 10 11 12 12 13 13 12 11 12 13 15 15
14 13 13 13 14 14 14 13 13 14 14 14 14 14 14 14 13 13 13 12 13 13 14 14 14 14 14 14 14 15 15 15 15 15 14 14 14 14 14 15 15 14 13 13 15 16 17 18 18 18 17 13 11 10 9 9 10 10 11 11 11 12 12 12 11 11 12 15 17
14 14 14 14 14 14 14 14 14 14 13 13 14 14 14 13 13 13 13 12 13 13 13 14 15 15 15 14 15 16 16 16 16 15 15 14 14 14 14 15 15 15 14 13 14 15 17 18 18 18 17 14 11 10 9 9 10 11 11 10 10 10 10 11 10 10 11 13 15
15 15 15 15 15 15 15 15 15 15 14 14 14 14 13 13 13 13 13 12 13 13 13 13 14 15 16 15 15 15 17 18 17 16 16 15 14 14 14 15 15 15 14 14 14 15 17 18 18 19 18 14 11 10 9 9 10 11 11 11 10 9 9 9 10 10 10 11 12
Wind_Direction
271 268 264 262 258 255 253 256 264 265 265 263 257 245 234 234 236 230 223 224 237 247 252 253 232 202 182 173 177 183 189 193 194 196 195 192 193 190 187 184 183 184 187 193 188 182 177 175 171 172 178 187 190 190 188 189 196 199 202 203 207 208 208 206 205 200 196 193 194
275 271 268 265 261 256 250 246 248 247 245 247 250 246 241 236 239 234 227 220 224 228 235 246 237 217 199 188 189 193 197 200 201 202 202 199 195 190 186 184 182 182 183 187 193 191 183 176 172 171 173 175 184 187 189 192 200 204 206 205 205 206 209 210 209 202 195 193 192
284 280 276 273 270 265 258 246 240 235 231 229 235 240 242 241 243 241 236 227 222 221 219 221 224 217 208 201 199 200 202 203 203 206 208 205 200 195 192 189 186 186 185 184 191 195 193 184 178 175 174 174 186 189 187 184 196 207 211 207 200 199 206 214 211 201 191 190 190
288 284 280 275 273 272 269 264 254 243 233 219 224 232 240 245 247 249 245 238 229 224 220 214 211 207 206 206 205 205 206 207 206 208 210 208 205 203 200 197 193 192 191 186 186 189 191 191 188 185 184 185 192 191 184 174 186 199 209 208 193 194 204 213 209 196 185 190 190
289 285 282 279 279 280 281 280 279 273 263 239 230 231 238 244 249 253 252 245 236 230 224 215 209 202 200 204 207 207 208 208 208 209 211 211 206 205 205 205 203 201 199 194 190 187 186 188 195 201 201 195 197 193 184 171 181 192 202 204 198 204 211 215 206 191 182 187 185
290 287 286 286 286 286 285 285 286 284 279 268 256 249 244 239 239 241 244 246 241 233 226 218 213 206 203 204 208 209 210 211 210 210 210 211 206 203 203 207 209 210 208 206 203 197 192 190 195 204 209 206 205 196 184 173 182 193 201 204 205 211 219 221 207 196 193 196 193
296 292 289 288 287 285 283 285 285 283 279 271 263 260 257 253 248 245 244 246 242 232 223 219 217 213 209 205 210 213 213 212 214 214 212 211 207 202 200 201 205 208 210 209 209 208 205 201 202 206 209 207 207 197 187 182 189 198 205 208 201 205 213 220 209 203 204 207 205
301 295 291 288 285 283 283 284 284 283 280 273 268 267 266 264 260 257 255 254 248 237 225 220 218 216 214 211 214 217 218 218 218 217 216 216 211 206 202 200 201 203 205 205 205 206 207 209 210 212 211 207 206 199 194 191 197 204 211 212 201 198 205 218 208 206 209 211 211
311 307 301 294 289 286 285 285 284 283 281 279 279 279 279 276 270 265 261 259 254 246 236 230 223 219 216 215 217 220 222 222 222 222 220 217 214 211 208 205 202 202 202 200 201 202 203 207 213 215 214 208 206 201 197 195 202 209 214 216 204 197 199 212 211 211 212 213 214
323 318 311 301 296 292 290 287 284 281 279 278 279 280 282 281 277 270 262 258 258 254 249 243 235 226 221 220 221 221 221 221 223 224 224 222 219 216 213 212 207 204 201 198 198 198 200 205 213 216 215 211 208 202 198 198 205 210 214 217 206 200 200 206 209 211 212 215 216
327 323 319 314 310 305 298 291 284 280 277 275 275 276 276 276 273 271 268 265 264 261 257 254 246 238 231 228 226 224 223 223 224 225 225 226 226 224 221 219 214 210 206 201 197 197 200 207 214 216 214 210 207 203 199 200 207 212 214 216 209 205 205 206 205 207 209 213 214
331 328 325 321 317 310 302 293 286 281 278 276 275 274 273 271 270 270 271 271 268 266 263 261 255 249 244 241 237 232 228 228 229 229 229 229 230 230 229 228 223 219 214 208 202 201 204 210 215 215 214 210 207 203 200 201 208 213 216 216 213 211 210 208 204 203 205 207 210
334 330 327 324 318 311 303 293 287 282 279 278 278 278 276 273 272 271 271 270 269 268 266 264 260 255 253 252 250 246 240 234 232 232 233 233 233 232 231 232 230 227 222 216 209 208 211 216 217 216 214 211 209 205 201 201 207 211 215 215 215 216 216 212 207 203 202 204 208
335 332 330 327 322 315 307 298 292 287 283 281 281 280 278 277 277 275 273 270 270 270 270 269 265 259 256 255 256 255 252 246 239 237 236 237 236 234 232 232 230 228 224 220 214 214 216 220 220 219 217 214 213 209 205 203 207 211 213 214 215 216 217 216 209 205 204 206 209
337 336 334 331 326 320 313 307 300 293 288 284 284 283 283 282 280 278 274 272 271 271 271 270 267 264 262 260 259 258 255 253 247 243 240 240 238 235 232 231 229 226 223 220 216 216 218 222 223 222 220 218 216 212 209 207 210 212 213 213 213 213 214 215 210 207 207 209 211
340 339 338 334 329 324 319 313 306 300 296 294 296 295 291 285 280 275 272 271 271 269 267 265 264 264 264 262 261 260 258 256 251 247 244 242 240 237 234 232 229 226 223 220 218 218 219 221 223 223 222 222 219 215 213 211 213 214 215 215 213 212 212 212 208 207 208 210 212
342 341 340 336 332 327 322 318 312 307 303 302 301 297 291 285 280 275 271 268 268 268 267 265 264 263 262 260 258 257 257 256 253 251 247 245 243 240 238 235 232 228 224 221 221 220 220 221 222 223 223 223 221 218 215 214 215 216 216 216 215 213 212 211 207 205 207 210 213
343 343 341 338 334 329 324 320 314 309 305 302 299 295 290 285 281 277 272 267 265 265 265 266 265 263 262 260 257 253 251 250 250 249 249 247 245 243 241 239 236 232 228 226 225 223 221 221 222 222 223 224 223 221 218 215 217 218 219 219 217 216 214 212 208 206 206 208 212
344 343 341 339 335 332 327 322 316 312 308 304 301 296 290 285 279 275 271 266 263 262 263 265 264 263 261 260 258 255 252 250 250 249 249 248 247 245 243 240 238 236 233 231 229 228 226 224 223 223 223 224 224 223 221 218 219 220 222 222 221 219 216 214 210 208 207 209 211
343 342 340 337 335 332 329 324 319 315 310 307 303 298 292 285 278 271 268 265 263 261 261 263 263 262 261 259 258 256 255 253 253 252 251 250 249 247 245 242 240 237 235 233 232 231 230 229 227 225 224 224 225 225 224 222 221 222 223 224 224 222 220 216 213 210 209 209 210
343 340 337 335 333 331 329 326 321 317 311 307 303 300 296 291 283 275 268 265 262 259 257 257 258 258 259 258 257 256 255 255 255 255 254 253 252 250 249 247 243 240 236 233 233 233 232 231 230 228 227 226 226 225 225 224 223 223 223 224 224 223 222 219 216 213 211 210 210
341 338 336 333 332 331 329 326 323 320 315 311 308 305 302 298 292 285 278 271 264 258 254 253 252 251 252 253 254 255 256 257 257 257 258 257 255 254 252 251 248 245 241 237 235 234 233 233 232 231 230 229 228 227 226 225 224 224 223 224 224 224 223 221 219 216 214 212 212
340 337 335 332 332 331 329 327 325 323 322 320 318 315 310 305 300 295 289 282 271 262 256 254 251 248 245 245 247 250 252 255 257 258 259 259 260 259 257 255 252 249 246 241 237 234 233 233 233 232 232 232 232 231 229 228 226 225 224 224 224 223 222 222 220 219 217 215 214
339 337 335 333 332 331 330 328 328 327 327 327 325 323 319 315 310 305 298 290 280 271 263 258 255 251 247 243 242 243 245 248 251 253 255 257 258 259 259 257 254 252 249 245 239 234 231 230 230 230 230 232 233 233 232 230 229 227 225 224 223 222 221 221 220 219 219 218 217
338 336 335 334 333 331 331 330 330 330 330 329 328 326 324 322 318 314 307 300 293 285 277 269 264 258 252 245 239 237 238 241 244 247 249 251 252 253 254 255 254 252 250 247 242 237 233 230 229 227 227 228 230 232 232 232 230 228 226 224 222 220 219 219 219 219 218 218 217
337 337 336 335 333 332 332 332 331 331 330 329 328 328 326 325 321 317 313 308 303 297 290 282 273 266 258 250 243 238 235 235 237 239 242 244 245 246 246 248 249 250 251 250 245 241 237 233 231 230 228 227 227 229 230 231 229 228 227 225 223 220 218 217 217 217 216 216 217
336 336 335 333 333 332 332 331 331 330 329 329 328 327 326 324 321 317 314 309 306 302 297 289 281 273 265 258 250 244 239 236 234 234 235 238 240 241 242 242 244 245 247 248 248 245 241 237 234 233 232 231 229 228 229 230 228 227 226 226 224 222 220 218 216 215 214 213 215
333 332 331 331 331 331 330 330 330 330 328 327 326 324 323 321 319 316 313 309 306 302 296 288 281 275 269 264 257 252 248 244 239 235 233 233 236 238 240 241 240 241 243 244 246 245 244 241 238 236 234 234 234 233 232 233 230 228 226 226 225 224 222 221 218 214 211 210 210
328 328 328 329 329 329 330 331 330 329 326 324 323 322 321 319 318 315 312 309 306 301 295 288 282 275 270 267 266 263 259 254 248 242 237 234 234 236 237 240 241 242 242 242 243 243 243 242 241 239 237 235 235 234 233 232 231 229 227 226 225 224 223 222 219 215 211 207 205
323 324 324 325 326 328 329 330 329 327 325 323 322 321 319 318 317 316 314 311 307 302 298 293 285 276 269 265 265 265 263 259 254 248 243 240 238 237 238 238 240 241 241 241 241 241 241 241 241 240 239 236 237 237 236 234 232 230 229 227 226 224 224 223 222 219 214 208 204
318 319 320 322 324 326 327 327 326 325 324 323 321 319 318 317 316 315 313 311 307 303 298 292 284 277 271 266 263 261 260 259 257 253 249 246 245 244 243 242 243 243 242 240 240 240 240 240 240 240 239 238 237 237 237 236 235 234 232 230 227 225 223 223 222 221 218 212 206
315 317 318 320 322 323 324 325 324 324 322 321 319 318 316 315 313 312 311 309 305 302 298 293 287 281 276 272 266 261 258 256 254 252 250 249 249 249 248 247 245 244 242 240 239 239 239 239 239 239 239 238 238 238 238 238 237 237 236 235 232 228 224 222 222 221 219 215 210
315 317 319 320 322 322 323 323 323 321 320 319 317 316 315 313 312 311 309 307 304 302 299 296 292 287 283 279 274 269 263 258 254 251 250 249 250 250 251 250 248 245 242 239 238 238 238 238 238 238 238 237 238 239 239 238 237 237 237 236 234 231 227 224 223 221 219 217 213
317 318 320 321 321 322 322 322 321 319 318 316 314 313 313 313 313 312 310 308 306 303 300 297 294 290 287 283 280 277 272 267 261 257 253 251 250 249 249 248 246 242 239 237 236 236 235 235 236 236 236 236 237 238 238 238 237 236 235 236 235 232 229 226 224 222 220 217 214
317 318 318 318 319 319 318 318 317 315 314 312 311 310 311 311 311 311 311 310 307 304 300 297 294 292 288 285 281 278 275 272 268 264 259 255 252 250 248 247 246 241 237 235 234 234 233 233 233 233 233 233 235 236 237 238 238 237 236 235 235 233 230 228 226 223 221 217 215
314 314 314 313 313 312 312 312 311 309 308 307 307 307 308 309 309 309 308 308 306 304 301 300 297 295 292 289 285 281 277 273 270 266 262 257 254 252 251 250 248 243 237 234 232 231 231 231 230 230 230 230 232 233 234 236 237 237 236 235 235 233 231 228 227 225 222 219 216
310 309 308 307 306 305 305 304 303 303 302 302 303 304 304 305 305 305 305 305 304 303 302 301 299 297 295 293 290 286 281 277 273 269 265 259 255 253 253 253 251 246 240 234 231 229 229 229 229 228 227 227 229 231 232 234 236 236 236 235 235 233 231 229 228 226 225 222 219
307 305 303 302 300 299 298 298 297 297 297 298 299 300 301 301 301 301 301 301 301 300 300 300 298 297 296 295 293 289 285 281 276 272 267 262 257 254 254 256 255 251 243 234 230 228 227 227 227 226 225 226 227 228 230 232 234 234 235 234 234 233 230 229 228 227 226 225 221
303 302 300 298 297 296 295 294 294 293 294 295 296 297 298 298 297 298 298 297 297 296 297 297 296 296 296 296 293 290 287 283 278 274 269 265 260 256 255 256 257 255 248 237 230 226 225 225 225 225 224 226 226 227 229 231 233 234 233 233 233 232 230 229 227 228 228 226 223
300 299 298 297 296 295 295 294 293 293 293 293 294 294 295 295 294 295 295 294 293 293 293 293 294 295 295 295 293 291 288 286 282 277 273 269 265 260 256 256 257 257 252 243 233 227 225 224 224 224 224 226 225 226 228 230 233 234 233 231 230 230 229 228 226 227 228 227 224
297 297 297 296 295 295 295 294 294 293 293 292 292 292 292 293 292 292 292 292 293 293 293 292 293 294 294 294 292 291 289 287 284 281 278 274 270 265 259 257 257 256 253 247 237 230 225 223 223 223 223 225 225 226 227 229 232 233 232 230 228 228 227 227 226 226 226 225 224